sat.trackr.live / text

‹ back to catalog

STARLINK-33925

NORAD 63793 · 2025-091U

PAYLOAD ACTIVE UNKNOWN

§ Identity

Operator
Country
US
Launch date
2025-05-02
Launch site
AFETR
Launch vehicle
Mass (kg)
RCS (m²)

Purposes: comms

External: N2YO · Heavens-Above · Gunter

§ Orbital elements

Epoch: 2026-05-24T20:36:56.112192Z

Period
94.27 min
Inclination
43.0053°
Eccentricity
0.0001540
Mean motion
15.27584618 rev/d
Perigee alt
482.0 km
Apogee alt
484.1 km
Semi-major
6,861.2 km
B*
9.3698e-4
RAAN
342.1603°
Arg perigee
268.8111°
Mean anomaly
91.2564°
Rev number
6,066

§ Raw data

STARLINK-339251 63793U 25091U   26144.85898278  .00025615  00000+0  93698-3 0  99932 63793  43.0053 342.1603 0001540 268.8111  91.2564 15.27584618 60663

JSON: /api/v1/satellites/63793 · /tle

For live sub-satellite position, see the globe view (requires WebGL).

§ Visibility from observer

Set your observer location to see the next 7 days of passes ≥ 10°. The values pass through the URL so the page stays shareable.

No JS? Fill the form by hand. The geolocation button needs JavaScript.